Location: Bidwell Hollow
(37.7387°N, 90.1707°W)
Time: 10:51:43
(UTC+00:00)

Transit 2A - Pass Details

Date: 23 May 2026
Orbit: 596 x 948 km, 66.7° (Epoch: 10 June)

Event Time Altitude Azimuth Distance (km) Brightness Sun altitude
Rises 04:15:19 0° 339° (NNW) 3,115 10.5 -26.9°
Reaches altitude 10° 04:17:57 10° 349° (NNW) 2,134 9.2 -27.2°
Enters shadow 04:21:55 34° 43° (NE) 1,073 6.9 -27.5°
Maximum altitude 04:22:19 35° 54° (NE) 1,054 - -27.5°
Drops below altitude 10° 04:26:23 10° 121° (ESE) 1,976 - -27.9°
Sets 04:28:44 0° 130° (SE) 2,851 - -28.1°
